Location: Ash Swamp
(41.5170°N, 74.6157°W)
Time: 02:46:17
(UTC+00:00)

DELTA 2 R/B (1) - Pass Details

Date: 14 July 2020
Orbit: 790 x 803 km, 39.6° (Epoch: 14 August)

Event Time Altitude Azimuth Distance (km) Brightness Sun altitude
Rises 01:01:08 0° 260° (W) 3,277 7.5 -5.5°
Reaches altitude 10° 01:03:37 10° 258° (WSW) 2,350 6.7 -5.8°
Maximum altitude 01:09:08 72° 175° (S) 831 3.6 -6.7°
Drops below altitude 10° 01:14:41 10° 92° (E) 2,360 5.6 -7.5°
Enters shadow 01:16:30 - 91° (E) 3,039 6.1 -7.8°
